This is the latest recevied weather packets stored in our database for station/object KN6WGU. If no packets are shown the sender has not sent any weather packets the latest 10 day(s).
| Time | Temp. | Humidity | Pressure | Rain* | Wind** | Luminosity | Snow |
|---|---|---|---|---|---|---|---|
| 1777509775 | 7.22° C | 99% | 1004.9 hPa | 0 mm | - | 0 W/m² | - |
| 1777509470 | 7.22° C | 99% | 1004.7 hPa | 0 mm | - | 0 W/m² | - |
| 1777509169 | 7.22° C | 99% | 1004.8 hPa | 0 mm | - | 0 W/m² | - |
| 1777508865 | 7.22° C | 99% | 1004.9 hPa | 0 mm | - | 0 W/m² | - |
| 1777508562 | 7.78° C | 99% | 1004.8 hPa | 1.27 mm | - | 1 W/m² | - |
| 1777508259 | 7.78° C | 99% | 1004.7 hPa | 1.27 mm | - | 1 W/m² | - |
| 1777507957 | 7.78° C | 99% | 1004.8 hPa | 1.78 mm | - | 1 W/m² | - |
| 1777507653 | 7.22° C | 99% | 1005 hPa | 3.05 mm | - | 1 W/m² | - |
| 1777507350 | 7.78° C | 99% | 1004.6 hPa | 1.27 mm | - | 2 W/m² | - |
| 1777507048 | 7.78° C | 99% | 1004.3 hPa | 1.78 mm | - | 3 W/m² | - |
| 1777506745 | 7.78° C | 99% | 1004.7 hPa | 1.78 mm | - | 2 W/m² | - |
| 1777506441 | 7.78° C | 99% | 1004.8 hPa | 0 mm | - | 2 W/m² | - |
| 1777506137 | 7.78° C | 99% | 1004.7 hPa | 0 mm | - | 2 W/m² | - |
| 1777505833 | 7.78° C | 99% | 1004.3 hPa | 0 mm | - | 2 W/m² | - |
| 1777505529 | 8.33° C | 99% | 1004.4 hPa | 0 mm | - | 3 W/m² | - |
| 1777505226 | 8.33° C | 99% | 1004.2 hPa | 0 mm | - | 3 W/m² | - |
| 1777504923 | 8.33° C | 99% | 1004.2 hPa | 0 mm | - | 6 W/m² | - |
| 1777504620 | 8.33° C | 99% | 1004 hPa | 0 mm | - | 8 W/m² | - |
| 1777504316 | 8.89° C | 99% | 1004.2 hPa | 0 mm | - | 15 W/m² | - |
| 1777504011 | 8.89° C | 99% | 1003.9 hPa | 0 mm | - | 18 W/m² | - |
| 1777503708 | 8.89° C | 99% | 1004.1 hPa | 0 mm | - | 28 W/m² | - |
| 1777503405 | 8.89° C | 99% | 1004.1 hPa | 0 mm | - | 25 W/m² | - |
| 1777503101 | 8.89° C | 99% | 1004 hPa | 0 mm | - | 26 W/m² | - |
| 1777502799 | 8.33° C | 99% | 1004.3 hPa | 0 mm | - | 23 W/m² | - |
| 1777502495 | 8.33° C | 98% | 1004.2 hPa | 0 mm | - | 13 W/m² | - |
* Rain latest hour (hover to see other rain measurements)
** Current wind speed in m/s (hover to see current wind gust speed)